This is the latest recevied weather packets stored in our database for station/object NEWPRT. If no packets are shown the sender has not sent any weather packets the latest 10 day(s).
| Time | Temp. | Humidity | Pressure | Rain* | Wind** | Luminosity | Snow |
|---|---|---|---|---|---|---|---|
| 1777914743 | - | 82% | 1014.9 hPa | 0 mm | - | - | - |
| 1777914420 | - | 83% | 1015.1 hPa | 0 mm | - | - | - |
| 1777914097 | - | 82% | 1014.9 hPa | 0 mm | - | - | - |
| 1777913774 | - | 81% | 1014.9 hPa | 0.25 mm | - | - | - |
| 1777913451 | - | 80% | 1014.8 hPa | 0.25 mm | - | - | - |
| 1777913128 | - | 82% | 1014.9 hPa | 0.25 mm | - | - | - |
| 1777912805 | - | 73% | 1015.1 hPa | 0.25 mm | - | - | - |
| 1777912482 | - | 82% | 1015 hPa | 0.25 mm | - | - | - |
| 1777912159 | - | 81% | 1014.6 hPa | 0.25 mm | - | - | - |
| 1777911838 | - | 81% | 1014.8 hPa | 0.25 mm | - | - | - |
| 1777911513 | - | 81% | 1015 hPa | 0.25 mm | - | - | - |
| 1777911190 | - | 82% | 1014.9 hPa | 0.25 mm | - | - | - |
| 1777910867 | - | 81% | 1014.9 hPa | 0.25 mm | - | - | - |
| 1777910544 | - | 82% | 1014.8 hPa | 0.25 mm | - | - | - |
| 1777910221 | - | 83% | 1014.9 hPa | 0 mm | - | - | - |
| 1777909899 | - | 85% | 1015 hPa | 0 mm | - | - | - |
| 1777909575 | - | 85% | 1015 hPa | 0 mm | - | - | - |
| 1777909252 | - | 83% | 1014.8 hPa | 0 mm | - | - | - |
| 1777908929 | - | 83% | 1014.6 hPa | 0 mm | - | - | - |
| 1777908606 | - | 81% | 1014.8 hPa | 0 mm | - | - | - |
| 1777908283 | - | 82% | 1014.8 hPa | 0 mm | - | - | - |
| 1777907960 | - | 83% | 1014.6 hPa | 0 mm | - | - | - |
| 1777907637 | - | 83% | 1014.8 hPa | 0.25 mm | - | - | - |
| 1777907314 | - | 86% | 1015 hPa | 0.25 mm | - | - | - |
| 1777906991 | - | 82% | 1014.2 hPa | 0.25 mm | - | - | - |
* Rain latest hour (hover to see other rain measurements)
** Current wind speed in m/s (hover to see current wind gust speed)